VOZ1416 YBCS-YSSY

Flight info

Callsign VOZ1416
Flight time 2h 26m
Altitude 37000
Route CS Y177 AKROM Y153 ROKUU H652 BOREE
Aircraft B738/M-SDE2E3FGHIRWXY/LB1

Departure

Time 2026-05-09 00:34
Airport Cairns International Airport (YBCS)

Arrival

Time 2026-05-09 03:01
Airport Sydney Kingsford Smith International Airport (YSSY)
Time Latitude Longitude Altitude Speed Heading
2026-05-09 00:19 -16.87618 145.75225 17 ft 0 kts 66°
2026-05-09 00:24 -16.87623 145.75213 18 ft 4 kts 66°
2026-05-09 00:24 -16.87634 145.75188 16 ft 4 kts 66°
2026-05-09 00:24 -16.87644 145.75163 16 ft 2 kts 67°
2026-05-09 00:24 -16.87656 145.75141 18 ft 4 kts 41°
2026-05-09 00:25 -16.87677 145.75132 16 ft 4 kts 345°
2026-05-09 00:25 -16.87700 145.75145 17 ft 4 kts 323°
2026-05-09 00:25 -16.87721 145.75160 18 ft 2 kts 335°
2026-05-09 00:25 -16.87723 145.75161 18 ft 1 kts 336°
2026-05-09 00:28 -16.87705 145.75153 16 ft 6 kts 336°
2026-05-09 00:28 -16.87658 145.75122 17 ft 10 kts 307°
2026-05-09 00:29 -16.87655 145.75056 15 ft 9 kts 285°
2026-05-09 00:29 -16.87606 145.75016 16 ft 9 kts 335°
2026-05-09 00:29 -16.87537 145.74985 16 ft 13 kts 337°
2026-05-09 00:29 -16.87443 145.74943 16 ft 17 kts 336°
2026-05-09 00:30 -16.87326 145.74890 15 ft 20 kts 336°
2026-05-09 00:30 -16.87198 145.74831 15 ft 19 kts 336°
2026-05-09 00:30 -16.87102 145.74788 15 ft 11 kts 337°
2026-05-09 00:30 -16.87047 145.74733 15 ft 12 kts 283°
2026-05-09 00:31 -16.87073 145.74655 14 ft 11 kts 246°
2026-05-09 00:31 -16.87064 145.74579 14 ft 11 kts 314°
2026-05-09 00:31 -16.86993 145.74540 14 ft 13 kts 336°
2026-05-09 00:31 -16.86890 145.74493 14 ft 20 kts 336°
2026-05-09 00:32 -16.86748 145.74428 15 ft 22 kts 336°
2026-05-09 00:32 -16.86629 145.74414 16 ft 14 kts 22°
2026-05-09 00:32 -16.86587 145.74388 17 ft 7 kts 264°
2026-05-09 00:32 -16.86620 145.74372 17 ft 6 kts 165°
2026-05-09 00:33 -16.86651 145.74385 16 ft 1 kts 156°
2026-05-09 00:33 -16.86655 145.74387 16 ft 1 kts 156°
2026-05-09 00:33 -16.86659 145.74388 16 ft 1 kts 156°
2026-05-09 00:33 -16.86766 145.74438 15 ft 50 kts 156°
2026-05-09 00:34 -16.87311 145.74685 16 ft 118 kts 156°
2026-05-09 00:34 -16.88220 145.75099 196 ft 158 kts 155°
2026-05-09 00:34 -16.89243 145.75610 830 ft 169 kts 143°
2026-05-09 00:34 -16.89906 145.76651 1509 ft 184 kts 107°
2026-05-09 00:35 -16.89808 145.77977 2413 ft 188 kts 75°
2026-05-09 00:35 -16.89069 145.79099 3411 ft 187 kts 53°
2026-05-09 00:35 -16.88121 145.80044 4204 ft 192 kts 51°
2026-05-09 00:35 -16.87116 145.80978 4862 ft 193 kts 45°
2026-05-09 00:36 -16.86044 145.81832 5491 ft 196 kts 43°
2026-05-09 00:36 -16.85002 145.82721 6109 ft 192 kts 56°
2026-05-09 00:36 -16.84459 145.83986 6573 ft 199 kts 75°
2026-05-09 00:36 -16.84138 145.85476 6809 ft 221 kts 83°
2026-05-09 00:37 -16.84093 145.87125 7255 ft 239 kts 93°
2026-05-09 00:37 -16.84358 145.88912 7726 ft 255 kts 102°
2026-05-09 00:37 -16.84851 145.90693 8586 ft 254 kts 105°
2026-05-09 00:37 -16.85429 145.92441 9529 ft 253 kts 107°
2026-05-09 00:38 -16.86022 145.94200 10175 ft 265 kts 107°
2026-05-09 00:38 -16.86663 145.96077 10474 ft 286 kts 108°
2026-05-09 00:38 -16.87444 145.98085 10635 ft 312 kts 113°
2026-05-09 00:38 -16.88491 146.00154 10925 ft 332 kts 120°
2026-05-09 00:39 -16.89868 146.02135 11422 ft 343 kts 129°
2026-05-09 00:39 -16.91554 146.03936 11975 ft 351 kts 137°
2026-05-09 00:39 -16.93476 146.05526 12632 ft 355 kts 144°
2026-05-09 00:39 -16.95564 146.06938 13269 ft 360 kts 150°
2026-05-09 00:40 -16.97775 146.08197 13896 ft 364 kts 154°
2026-05-09 00:40 -17.00064 146.09361 14436 ft 369 kts 156°
2026-05-09 00:40 -17.02402 146.10514 14960 ft 374 kts 156°
2026-05-09 00:41 -17.07162 146.12882 16014 ft 385 kts 156°
2026-05-09 00:41 -17.09591 146.14114 16514 ft 391 kts 156°
2026-05-09 00:41 -17.12041 146.15371 17105 ft 393 kts 156°
2026-05-09 00:41 -17.14502 146.16644 17667 ft 397 kts 156°
2026-05-09 00:42 -17.16998 146.17937 18151 ft 402 kts 156°
2026-05-09 00:42 -17.19508 146.19241 18703 ft 404 kts 156°
2026-05-09 00:42 -17.22007 146.20541 19128 ft 409 kts 156°
2026-05-09 00:42 -17.24563 146.21872 19585 ft 412 kts 156°
2026-05-09 00:43 -17.27142 146.23216 20042 ft 416 kts 156°
2026-05-09 00:43 -17.29740 146.24571 20506 ft 419 kts 156°
2026-05-09 00:43 -17.32358 146.25935 20965 ft 422 kts 156°
2026-05-09 00:43 -17.34997 146.27311 21394 ft 426 kts 156°
2026-05-09 00:44 -17.37661 146.28701 21817 ft 430 kts 156°
2026-05-09 00:44 -17.40348 146.30102 22230 ft 433 kts 156°
2026-05-09 00:44 -17.43055 146.31515 22638 ft 437 kts 156°
2026-05-09 00:44 -17.45789 146.32942 23048 ft 440 kts 156°
2026-05-09 00:45 -17.48541 146.34379 23443 ft 444 kts 156°
2026-05-09 00:45 -17.51313 146.35827 23812 ft 447 kts 156°
2026-05-09 00:45 -17.54108 146.37288 24148 ft 450 kts 156°
2026-05-09 00:45 -17.56918 146.38757 24479 ft 452 kts 156°
2026-05-09 00:46 -17.59739 146.40232 24821 ft 455 kts 156°
2026-05-09 00:46 -17.62579 146.41717 25144 ft 458 kts 156°
2026-05-09 00:46 -17.65435 146.43212 25464 ft 460 kts 156°
2026-05-09 00:46 -17.68305 146.44714 25788 ft 462 kts 156°
2026-05-09 00:47 -17.71190 146.46225 26108 ft 465 kts 157°
2026-05-09 00:47 -17.74091 146.47745 26405 ft 467 kts 157°
2026-05-09 00:47 -17.77008 146.49273 26719 ft 470 kts 157°
2026-05-09 00:47 -17.79939 146.50810 27018 ft 472 kts 157°
2026-05-09 00:48 -17.82884 146.52354 27316 ft 474 kts 157°
2026-05-09 00:48 -17.85842 146.53906 27617 ft 477 kts 157°
2026-05-09 00:48 -17.88817 146.55468 27895 ft 479 kts 157°
2026-05-09 00:48 -17.91804 146.57036 28172 ft 481 kts 157°
2026-05-09 00:49 -17.94765 146.58591 28445 ft 484 kts 158°
2026-05-09 00:49 -17.97821 146.60197 28716 ft 486 kts 158°
2026-05-09 00:49 -18.00811 146.61769 28970 ft 488 kts 158°
2026-05-09 00:49 -18.03853 146.63368 29240 ft 490 kts 158°
2026-05-09 00:50 -18.06908 146.64976 29496 ft 492 kts 158°
2026-05-09 00:50 -18.09975 146.66590 29738 ft 494 kts 158°
2026-05-09 00:50 -18.13054 146.68211 29980 ft 496 kts 158°
2026-05-09 00:50 -18.16149 146.69841 30206 ft 498 kts 158°
2026-05-09 00:51 -18.19254 146.71478 30405 ft 500 kts 158°
2026-05-09 00:51 -18.22374 146.73123 30604 ft 502 kts 158°
2026-05-09 00:51 -18.25502 146.74773 30801 ft 504 kts 158°
2026-05-09 00:51 -18.28642 146.76430 30983 ft 506 kts 158°
2026-05-09 00:52 -18.31792 146.78093 31165 ft 508 kts 158°
2026-05-09 00:52 -18.34957 146.79749 31368 ft 508 kts 160°
2026-05-09 00:52 -18.38247 146.81022 31575 ft 501 kts 169°
2026-05-09 00:52 -18.41604 146.81953 31876 ft 498 kts 172°
2026-05-09 00:53 -18.44975 146.82781 32150 ft 497 kts 173°
2026-05-09 00:53 -18.48344 146.83582 32385 ft 497 kts 173°
2026-05-09 00:53 -18.51721 146.84399 32603 ft 498 kts 173°
2026-05-09 00:53 -18.55096 146.85243 32862 ft 499 kts 172°
2026-05-09 00:54 -18.58469 146.86112 33136 ft 499 kts 172°
2026-05-09 00:54 -18.61834 146.86997 33408 ft 499 kts 172°
2026-05-09 00:54 -18.65201 146.87893 33647 ft 499 kts 172°
2026-05-09 00:54 -18.68568 146.88793 33915 ft 500 kts 172°
2026-05-09 00:55 -18.71939 146.89695 34161 ft 500 kts 172°
2026-05-09 00:55 -18.75308 146.90595 34390 ft 499 kts 172°
2026-05-09 00:55 -18.78677 146.91495 34656 ft 498 kts 172°
2026-05-09 00:55 -18.82030 146.92391 34938 ft 496 kts 172°
2026-05-09 00:56 -18.85375 146.93283 35193 ft 496 kts 172°
2026-05-09 00:56 -18.88715 146.94174 35409 ft 495 kts 173°
2026-05-09 00:56 -18.92057 146.95065 35638 ft 495 kts 173°
2026-05-09 00:56 -18.95390 146.95954 35896 ft 494 kts 173°
2026-05-09 00:57 -18.98717 146.96842 36142 ft 493 kts 173°
2026-05-09 00:57 -19.02040 146.97730 36373 ft 492 kts 173°
2026-05-09 00:57 -19.05354 146.98615 36600 ft 491 kts 173°
2026-05-09 00:57 -19.08663 146.99500 36820 ft 490 kts 173°
2026-05-09 00:58 -19.11970 147.00384 37045 ft 490 kts 173°
2026-05-09 00:58 -19.15274 147.01267 37146 ft 492 kts 173°
2026-05-09 00:58 -19.21920 147.03044 37139 ft 492 kts 173°
2026-05-09 00:59 -19.28520 147.04817 37147 ft 488 kts 173°
2026-05-09 00:59 -19.35043 147.06567 37155 ft 486 kts 173°
2026-05-09 01:00 -19.41586 147.08321 37158 ft 485 kts 173°
2026-05-09 01:00 -19.48120 147.10075 37162 ft 484 kts 173°
2026-05-09 01:01 -19.54663 147.11833 37163 ft 485 kts 174°
2026-05-09 01:01 -19.61223 147.13597 37163 ft 487 kts 174°
2026-05-09 01:02 -19.67807 147.15370 37173 ft 489 kts 174°
2026-05-09 01:02 -19.74419 147.17152 37175 ft 491 kts 173°
2026-05-09 01:03 -19.81064 147.18945 37166 ft 494 kts 174°
2026-05-09 01:03 -19.87732 147.20743 37170 ft 495 kts 174°
2026-05-09 01:04 -19.94416 147.22545 37167 ft 496 kts 174°
2026-05-09 01:04 -20.01116 147.24354 37165 ft 497 kts 174°
2026-05-09 01:05 -20.07808 147.26164 37168 ft 496 kts 174°
2026-05-09 01:06 -20.17823 147.28876 37173 ft 494 kts 174°
2026-05-09 01:06 -20.24476 147.30679 37168 ft 493 kts 174°
2026-05-09 01:07 -20.31114 147.32478 37175 ft 492 kts 174°
2026-05-09 01:07 -20.37732 147.34274 37171 ft 491 kts 174°
2026-05-09 01:08 -20.44315 147.36061 37171 ft 491 kts 174°
2026-05-09 01:08 -20.50926 147.37859 37170 ft 490 kts 174°
2026-05-09 01:09 -20.57525 147.39655 37180 ft 490 kts 174°
2026-05-09 01:09 -20.64130 147.41452 37176 ft 490 kts 174°
2026-05-09 01:10 -20.70739 147.43253 37176 ft 490 kts 174°
2026-05-09 01:10 -20.76283 147.44765 37180 ft 491 kts 174°
2026-05-09 01:11 -20.82907 147.46574 37186 ft 492 kts 174°
2026-05-09 01:11 -20.89550 147.48388 37176 ft 493 kts 174°
2026-05-09 01:12 -20.96164 147.50198 37187 ft 495 kts 174°
2026-05-09 01:12 -21.02839 147.52025 37183 ft 496 kts 174°
2026-05-09 01:13 -21.09521 147.53857 37184 ft 496 kts 174°
2026-05-09 01:13 -21.16208 147.55692 37188 ft 496 kts 174°
2026-05-09 01:14 -21.22892 147.57527 37188 ft 496 kts 174°
2026-05-09 01:14 -21.29576 147.59365 37192 ft 496 kts 174°
2026-05-09 01:15 -21.36260 147.61203 37196 ft 496 kts 175°
2026-05-09 01:15 -21.42936 147.63042 37196 ft 495 kts 175°
2026-05-09 01:16 -21.49604 147.64879 37196 ft 494 kts 175°
2026-05-09 01:16 -21.56262 147.66717 37205 ft 494 kts 175°
2026-05-09 01:17 -21.66234 147.69470 37209 ft 493 kts 175°
2026-05-09 01:17 -21.72873 147.71306 37202 ft 492 kts 175°
2026-05-09 01:18 -21.79503 147.73141 37216 ft 492 kts 175°
2026-05-09 01:18 -21.86137 147.74978 37207 ft 492 kts 175°
2026-05-09 01:19 -21.92768 147.76817 37213 ft 492 kts 175°
2026-05-09 01:19 -21.99410 147.78660 37204 ft 493 kts 175°
2026-05-09 01:20 -22.06051 147.80505 37216 ft 493 kts 175°
2026-05-09 01:20 -22.12698 147.82354 37216 ft 494 kts 175°
2026-05-09 01:21 -22.19356 147.84207 37218 ft 494 kts 175°
2026-05-09 01:21 -22.25980 147.86052 37221 ft 495 kts 175°
2026-05-09 01:22 -22.32655 147.87914 37221 ft 496 kts 175°
2026-05-09 01:22 -22.39341 147.89781 37222 ft 497 kts 175°
2026-05-09 01:23 -22.46034 147.91652 37222 ft 497 kts 175°
2026-05-09 01:23 -22.52733 147.93527 37218 ft 497 kts 176°
2026-05-09 01:24 -22.59430 147.95403 37235 ft 497 kts 176°
2026-05-09 01:24 -22.66129 147.97281 37235 ft 497 kts 176°
2026-05-09 01:25 -22.72828 147.99161 37230 ft 497 kts 176°
2026-05-09 01:25 -22.79519 148.01041 37229 ft 497 kts 176°
2026-05-09 01:26 -22.86205 148.02920 37234 ft 496 kts 176°
2026-05-09 01:26 -22.92884 148.04801 37233 ft 496 kts 176°
2026-05-09 01:27 -22.99555 148.06680 37237 ft 495 kts 176°
2026-05-09 01:27 -23.06229 148.08563 37240 ft 495 kts 176°
2026-05-09 01:28 -23.12895 148.10445 37232 ft 495 kts 176°
2026-05-09 01:28 -23.19564 148.12331 37235 ft 495 kts 176°
2026-05-09 01:29 -23.26230 148.14217 37236 ft 495 kts 176°
2026-05-09 01:29 -23.32895 148.16105 37240 ft 495 kts 176°
2026-05-09 01:30 -23.39567 148.17996 37238 ft 496 kts 177°
2026-05-09 01:30 -23.46247 148.19893 37233 ft 496 kts 177°
2026-05-09 01:31 -23.52928 148.21791 37240 ft 496 kts 177°
2026-05-09 01:31 -23.59616 148.23694 37235 ft 497 kts 177°
2026-05-09 01:32 -23.66302 148.25598 37238 ft 497 kts 177°
2026-05-09 01:32 -23.72990 148.27504 37236 ft 497 kts 177°
2026-05-09 01:33 -23.79685 148.29415 37231 ft 497 kts 177°
2026-05-09 01:33 -23.86377 148.31327 37238 ft 497 kts 177°
2026-05-09 01:34 -23.93064 148.33240 37234 ft 497 kts 177°
2026-05-09 01:34 -23.99754 148.35155 37233 ft 497 kts 177°
2026-05-09 01:35 -24.06433 148.37070 37237 ft 496 kts 178°
2026-05-09 01:35 -24.13063 148.38972 37236 ft 496 kts 178°
2026-05-09 01:36 -24.19735 148.40888 37241 ft 495 kts 178°
2026-05-09 01:36 -24.26404 148.42805 37238 ft 495 kts 178°
2026-05-09 01:37 -24.33067 148.44723 37241 ft 495 kts 178°
2026-05-09 01:37 -24.39733 148.46644 37237 ft 495 kts 178°
2026-05-09 01:38 -24.46396 148.48566 37243 ft 495 kts 178°
2026-05-09 01:38 -24.53055 148.50488 37240 ft 495 kts 178°
2026-05-09 01:39 -24.59711 148.52413 37241 ft 495 kts 178°
2026-05-09 01:39 -24.66376 148.54341 37248 ft 495 kts 178°
2026-05-09 01:40 -24.73042 148.56272 37248 ft 495 kts 178°
2026-05-09 01:40 -24.79707 148.58206 37242 ft 496 kts 178°
2026-05-09 01:41 -24.86375 148.60142 37238 ft 495 kts 178°
2026-05-09 01:41 -24.93036 148.62080 37244 ft 494 kts 178°
2026-05-09 01:42 -24.99685 148.64015 37253 ft 494 kts 178°
2026-05-09 01:42 -25.06332 148.65952 37251 ft 494 kts 178°
2026-05-09 01:43 -25.12968 148.67887 37249 ft 493 kts 178°
2026-05-09 01:43 -25.19599 148.69823 37248 ft 493 kts 178°
2026-05-09 01:44 -25.26225 148.71760 37257 ft 492 kts 179°
2026-05-09 01:44 -25.32842 148.73697 37260 ft 492 kts 179°
2026-05-09 01:45 -25.39460 148.75636 37258 ft 492 kts 179°
2026-05-09 01:45 -25.46067 148.77575 37266 ft 491 kts 179°
2026-05-09 01:46 -25.52675 148.79514 37260 ft 492 kts 179°
2026-05-09 01:46 -25.59285 148.81459 37274 ft 491 kts 179°
2026-05-09 01:47 -25.65888 148.83403 37263 ft 491 kts 179°
2026-05-09 01:47 -25.72491 148.85351 37262 ft 491 kts 179°
2026-05-09 01:48 -25.79091 148.87302 37273 ft 491 kts 179°
2026-05-09 01:48 -25.85682 148.89253 37271 ft 490 kts 178°
2026-05-09 01:49 -25.92230 148.91193 37267 ft 490 kts 178°
2026-05-09 01:49 -25.98817 148.93147 37267 ft 490 kts 178°
2026-05-09 01:50 -26.05398 148.95102 37264 ft 489 kts 178°
2026-05-09 01:50 -26.11961 148.97053 37274 ft 488 kts 178°
2026-05-09 01:51 -26.18519 148.99005 37272 ft 488 kts 178°
2026-05-09 01:51 -26.25070 149.00957 37267 ft 487 kts 178°
2026-05-09 01:52 -26.31616 149.02911 37270 ft 486 kts 178°
2026-05-09 01:52 -26.38148 149.04862 37278 ft 486 kts 178°
2026-05-09 01:53 -26.44676 149.06813 37273 ft 486 kts 178°
2026-05-09 01:53 -26.51201 149.08839 37273 ft 488 kts 176°
2026-05-09 01:54 -26.57710 149.11080 37275 ft 490 kts 175°
2026-05-09 01:54 -26.64209 149.13353 37270 ft 489 kts 175°
2026-05-09 01:55 -26.70702 149.15598 37273 ft 488 kts 175°
2026-05-09 01:55 -26.77191 149.17825 37271 ft 487 kts 175°
2026-05-09 01:56 -26.82577 149.19671 37276 ft 487 kts 175°
2026-05-09 01:56 -26.89054 149.21894 37272 ft 486 kts 175°
2026-05-09 01:57 -26.95519 149.24117 37273 ft 486 kts 175°
2026-05-09 01:57 -27.01985 149.26342 37267 ft 486 kts 175°
2026-05-09 01:58 -27.08444 149.28569 37273 ft 485 kts 175°
2026-05-09 01:58 -27.14899 149.30797 37275 ft 485 kts 175°
2026-05-09 01:59 -27.21353 149.33027 37271 ft 485 kts 175°
2026-05-09 01:59 -27.27804 149.35259 37272 ft 485 kts 175°
2026-05-09 02:00 -27.34253 149.37493 37272 ft 485 kts 175°
2026-05-09 02:00 -27.40696 149.39728 37272 ft 485 kts 175°
2026-05-09 02:01 -27.47140 149.41966 37273 ft 484 kts 175°
2026-05-09 02:01 -27.53577 149.44204 37267 ft 484 kts 175°
2026-05-09 02:02 -27.60015 149.46445 37266 ft 484 kts 175°
2026-05-09 02:02 -27.66446 149.48687 37285 ft 483 kts 175°
2026-05-09 02:03 -27.72828 149.50914 37276 ft 483 kts 174°
2026-05-09 02:03 -27.79245 149.53156 37270 ft 483 kts 174°
2026-05-09 02:04 -27.85654 149.55399 37275 ft 482 kts 174°
2026-05-09 02:04 -27.92057 149.57641 37276 ft 481 kts 174°
2026-05-09 02:05 -27.98452 149.59884 37274 ft 481 kts 174°
2026-05-09 02:05 -28.04839 149.62127 37275 ft 480 kts 174°
2026-05-09 02:06 -28.11220 149.64371 37270 ft 480 kts 174°
2026-05-09 02:07 -28.20785 149.67696 37270 ft 476 kts 176°
2026-05-09 02:07 -28.27174 149.69548 37271 ft 473 kts 178°
2026-05-09 02:08 -28.33570 149.71318 37269 ft 473 kts 177°
2026-05-09 02:08 -28.39961 149.73136 37272 ft 474 kts 177°
2026-05-09 02:09 -28.46350 149.74988 37268 ft 474 kts 176°
2026-05-09 02:09 -28.52740 149.76849 37268 ft 474 kts 176°
2026-05-09 02:10 -28.59129 149.78710 37267 ft 474 kts 176°
2026-05-09 02:10 -28.65523 149.80574 37267 ft 474 kts 176°
2026-05-09 02:11 -28.71917 149.82439 37268 ft 474 kts 176°
2026-05-09 02:11 -28.78307 149.84307 37269 ft 474 kts 176°
2026-05-09 02:12 -28.84700 149.86179 37264 ft 474 kts 175°
2026-05-09 02:12 -28.91087 149.88063 37267 ft 474 kts 175°
2026-05-09 02:13 -28.97470 149.89951 37269 ft 474 kts 175°
2026-05-09 02:13 -29.03847 149.91838 37270 ft 473 kts 175°
2026-05-09 02:14 -29.10216 149.93725 37265 ft 473 kts 175°
2026-05-09 02:14 -29.16579 149.95612 37264 ft 472 kts 175°
2026-05-09 02:15 -29.22890 149.97486 37266 ft 472 kts 175°
2026-05-09 02:15 -29.29237 149.99374 37266 ft 471 kts 174°
2026-05-09 02:16 -29.35580 150.01262 37262 ft 470 kts 174°
2026-05-09 02:16 -29.41914 150.03149 37266 ft 470 kts 174°
2026-05-09 02:17 -29.48240 150.05018 37260 ft 469 kts 174°
2026-05-09 02:17 -29.54558 150.06885 37263 ft 469 kts 174°
2026-05-09 02:18 -29.60869 150.08755 37259 ft 468 kts 174°
2026-05-09 02:18 -29.67180 150.10628 37261 ft 468 kts 173°
2026-05-09 02:19 -29.73477 150.12511 37262 ft 468 kts 173°
2026-05-09 02:19 -29.79771 150.14399 37260 ft 467 kts 173°
2026-05-09 02:20 -29.86063 150.16289 37262 ft 467 kts 173°
2026-05-09 02:20 -29.92346 150.18177 37264 ft 467 kts 173°
2026-05-09 02:21 -29.98627 150.20067 37251 ft 466 kts 173°
2026-05-09 02:21 -30.04900 150.21957 37256 ft 466 kts 172°
2026-05-09 02:22 -30.11170 150.23848 37267 ft 465 kts 172°
2026-05-09 02:22 -30.17396 150.25729 37276 ft 465 kts 172°
2026-05-09 02:23 -30.23707 150.27638 37270 ft 465 kts 172°
2026-05-09 02:23 -30.29925 150.29521 37265 ft 465 kts 172°
2026-05-09 02:24 -30.36179 150.31419 37259 ft 464 kts 172°
2026-05-09 02:24 -30.42424 150.33316 37270 ft 464 kts 172°
2026-05-09 02:25 -30.48680 150.35217 37260 ft 465 kts 171°
2026-05-09 02:25 -30.54931 150.37121 37263 ft 465 kts 171°
2026-05-09 02:26 -30.61186 150.39028 37262 ft 465 kts 171°
2026-05-09 02:26 -30.67438 150.40937 37266 ft 464 kts 171°
2026-05-09 02:27 -30.73688 150.42848 37271 ft 464 kts 171°
2026-05-09 02:27 -30.79930 150.44759 37268 ft 464 kts 171°
2026-05-09 02:28 -30.86165 150.46670 37264 ft 463 kts 171°
2026-05-09 02:28 -30.92391 150.48579 37271 ft 462 kts 171°
2026-05-09 02:29 -30.98610 150.50488 37277 ft 462 kts 170°
2026-05-09 02:29 -31.04829 150.52400 37276 ft 462 kts 170°
2026-05-09 02:30 -31.11037 150.54312 37280 ft 461 kts 170°
2026-05-09 02:30 -31.17241 150.56225 37275 ft 461 kts 170°
2026-05-09 02:31 -31.23433 150.58137 37278 ft 460 kts 170°
2026-05-09 02:31 -31.29620 150.60050 37280 ft 460 kts 170°
2026-05-09 02:32 -31.35800 150.61963 37266 ft 459 kts 169°
2026-05-09 02:32 -31.41930 150.63864 37268 ft 458 kts 169°
2026-05-09 02:33 -31.48093 150.65777 37269 ft 458 kts 169°
2026-05-09 02:33 -31.54242 150.67689 37268 ft 457 kts 169°
2026-05-09 02:34 -31.60383 150.69601 37268 ft 456 kts 169°
2026-05-09 02:34 -31.66518 150.71513 37270 ft 456 kts 169°
2026-05-09 02:35 -31.72643 150.73425 37272 ft 455 kts 169°
2026-05-09 02:35 -31.78764 150.75339 37277 ft 455 kts 168°
2026-05-09 02:36 -31.84877 150.77253 37273 ft 454 kts 169°
2026-05-09 02:36 -31.90997 150.79170 36803 ft 460 kts 168°
2026-05-09 02:36 -31.94084 150.80138 36313 ft 457 kts 168°
2026-05-09 02:37 -31.97159 150.81105 35696 ft 457 kts 167°
2026-05-09 02:37 -32.00233 150.82071 35088 ft 458 kts 167°
2026-05-09 02:37 -32.03313 150.83031 34455 ft 458 kts 167°
2026-05-09 02:37 -32.06439 150.83758 33824 ft 456 kts 172°
2026-05-09 02:38 -32.09576 150.84312 33120 ft 456 kts 173°
2026-05-09 02:38 -32.12722 150.84812 32441 ft 456 kts 173°
2026-05-09 02:38 -32.15869 150.85308 31723 ft 456 kts 172°
2026-05-09 02:38 -32.19015 150.85819 31004 ft 457 kts 171°
2026-05-09 02:39 -32.22164 150.86348 30242 ft 458 kts 171°
2026-05-09 02:39 -32.25318 150.86891 29345 ft 458 kts 171°
2026-05-09 02:39 -32.28457 150.87439 28748 ft 453 kts 171°
2026-05-09 02:39 -32.31559 150.87983 28128 ft 448 kts 171°
2026-05-09 02:40 -32.34622 150.88521 27563 ft 442 kts 171°
2026-05-09 02:40 -32.37655 150.89052 26981 ft 438 kts 171°
2026-05-09 02:40 -32.40654 150.89578 26422 ft 434 kts 171°
2026-05-09 02:40 -32.43626 150.90099 25866 ft 430 kts 171°
2026-05-09 02:41 -32.46571 150.90615 25318 ft 426 kts 171°
2026-05-09 02:41 -32.49492 150.91128 24772 ft 423 kts 171°
2026-05-09 02:41 -32.52388 150.91640 24300 ft 418 kts 171°
2026-05-09 02:41 -32.55250 150.92154 23769 ft 415 kts 171°
2026-05-09 02:42 -32.58089 150.92665 23163 ft 412 kts 171°
2026-05-09 02:42 -32.60911 150.93175 22591 ft 408 kts 171°
2026-05-09 02:42 -32.63707 150.93679 22043 ft 405 kts 171°
2026-05-09 02:42 -32.66478 150.94178 21503 ft 401 kts 171°
2026-05-09 02:43 -32.68303 150.94507 21147 ft 399 kts 171°
2026-05-09 02:43 -32.71919 150.95158 20450 ft 395 kts 172°
2026-05-09 02:43 -32.74623 150.95646 19926 ft 393 kts 172°
2026-05-09 02:43 -32.77322 150.96133 19409 ft 390 kts 172°
2026-05-09 02:44 -32.79132 150.96459 19056 ft 389 kts 172°
2026-05-09 02:44 -32.81805 150.96937 18495 ft 388 kts 172°
2026-05-09 02:44 -32.85332 150.97562 17729 ft 385 kts 172°
2026-05-09 02:44 -32.87971 150.98029 17185 ft 382 kts 172°
2026-05-09 02:45 -32.89746 150.98344 16835 ft 380 kts 172°
2026-05-09 02:45 -32.92351 150.98806 16321 ft 377 kts 172°
2026-05-09 02:45 -32.94497 150.99187 15898 ft 375 kts 172°
2026-05-09 02:45 -32.97100 150.99650 15383 ft 373 kts 172°
2026-05-09 02:46 -32.99656 151.00106 14885 ft 371 kts 173°
2026-05-09 02:46 -33.01999 151.00523 14427 ft 369 kts 173°
2026-05-09 02:46 -33.04529 151.00974 13895 ft 367 kts 173°
2026-05-09 02:46 -33.07051 151.01424 13348 ft 365 kts 173°
2026-05-09 02:47 -33.09558 151.01872 12828 ft 363 kts 172°
2026-05-09 02:47 -33.12042 151.02315 12327 ft 360 kts 172°
2026-05-09 02:47 -33.14509 151.02755 11722 ft 360 kts 172°
2026-05-09 02:47 -33.16995 151.03199 11114 ft 360 kts 172°
2026-05-09 02:48 -33.19416 151.03632 10858 ft 350 kts 172°
2026-05-09 02:48 -33.21787 151.04057 10662 ft 339 kts 172°
2026-05-09 02:48 -33.24081 151.04470 10516 ft 328 kts 172°
2026-05-09 02:48 -33.26297 151.04888 10368 ft 317 kts 172°
2026-05-09 02:49 -33.28443 151.05301 10231 ft 308 kts 172°
2026-05-09 02:49 -33.30527 151.05702 10091 ft 299 kts 172°
2026-05-09 02:49 -33.32554 151.06092 9988 ft 289 kts 172°
2026-05-09 02:49 -33.34501 151.06452 9963 ft 277 kts 172°
2026-05-09 02:50 -33.36419 151.06782 9407 ft 278 kts 173°
2026-05-09 02:50 -33.38316 151.07101 9033 ft 274 kts 173°
2026-05-09 02:50 -33.40199 151.07418 8740 ft 273 kts 173°
2026-05-09 02:50 -33.42077 151.07737 8458 ft 272 kts 173°
2026-05-09 02:51 -33.43953 151.08054 8152 ft 272 kts 173°
2026-05-09 02:51 -33.45825 151.08372 7860 ft 272 kts 173°
2026-05-09 02:51 -33.47692 151.08691 7586 ft 270 kts 172°
2026-05-09 02:51 -33.49550 151.09009 7308 ft 270 kts 172°
2026-05-09 02:52 -33.51407 151.09327 7020 ft 269 kts 172°
2026-05-09 02:52 -33.53260 151.09645 6744 ft 269 kts 172°
2026-05-09 02:52 -33.55108 151.09962 6433 ft 268 kts 172°
2026-05-09 02:52 -33.56954 151.10279 6143 ft 268 kts 172°
2026-05-09 02:53 -33.58792 151.10595 5854 ft 266 kts 172°
2026-05-09 02:53 -33.60626 151.10910 5570 ft 265 kts 172°
2026-05-09 02:53 -33.62449 151.11224 5289 ft 264 kts 172°
2026-05-09 02:53 -33.64269 151.11537 5008 ft 264 kts 172°
2026-05-09 02:54 -33.66071 151.11848 4848 ft 258 kts 172°
2026-05-09 02:54 -33.67816 151.12149 4794 ft 249 kts 172°
2026-05-09 02:54 -33.69486 151.12429 4796 ft 235 kts 173°
2026-05-09 02:54 -33.71035 151.12671 4759 ft 221 kts 171°
2026-05-09 02:55 -33.72541 151.12998 4540 ft 214 kts 169°
2026-05-09 02:55 -33.73985 151.13359 4266 ft 210 kts 168°
2026-05-09 02:55 -33.75379 151.13720 3992 ft 205 kts 168°
2026-05-09 02:55 -33.76764 151.14085 3720 ft 201 kts 168°
2026-05-09 02:56 -33.78130 151.14440 3476 ft 197 kts 169°
2026-05-09 02:56 -33.79436 151.14781 3196 ft 191 kts 168°
2026-05-09 02:56 -33.80697 151.15111 2962 ft 180 kts 169°
2026-05-09 02:56 -33.81924 151.15431 2712 ft 178 kts 168°
2026-05-09 02:57 -33.83098 151.15736 2512 ft 166 kts 169°
2026-05-09 02:57 -33.84232 151.16037 2310 ft 162 kts 169°
2026-05-09 02:57 -33.85324 151.16315 2044 ft 155 kts 169°
2026-05-09 02:57 -33.86324 151.16595 1880 ft 138 kts 169°
2026-05-09 02:58 -33.87247 151.16822 1647 ft 133 kts 169°
2026-05-09 02:58 -33.88135 151.17051 1443 ft 127 kts 169°
2026-05-09 02:58 -33.88968 151.17269 1296 ft 124 kts 169°
2026-05-09 02:58 -33.89803 151.17486 1141 ft 124 kts 169°
2026-05-09 02:59 -33.90657 151.17708 1041 ft 124 kts 169°
2026-05-09 02:59 -33.91490 151.17946 867 ft 123 kts 168°
2026-05-09 02:59 -33.92314 151.18162 709 ft 121 kts 169°
2026-05-09 02:59 -33.93141 151.18358 473 ft 120 kts 169°
2026-05-09 03:00 -33.93956 151.18573 278 ft 120 kts 168°
2026-05-09 03:00 -33.94747 151.18774 126 ft 113 kts 167°
2026-05-09 03:00 -33.95487 151.18967 27 ft 100 kts 168°
2026-05-09 03:00 -33.96046 151.19109 27 ft 62 kts 168°
2026-05-09 03:01 -33.96346 151.19187 27 ft 33 kts 168°
2026-05-09 03:01 -33.96524 151.19218 26 ft 24 kts 179°
2026-05-09 03:01 -33.96670 151.19183 28 ft 15 kts 197°
2026-05-09 03:01 -33.96707 151.19103 28 ft 11 kts 292°
2026-05-09 03:02 -33.96642 151.19063 29 ft 11 kts 348°
2026-05-09 03:02 -33.96570 151.19044 29 ft 10 kts 347°
2026-05-09 03:02 -33.96478 151.19021 29 ft 18 kts 348°
2026-05-09 03:02 -33.96330 151.18982 29 ft 23 kts 348°
2026-05-09 03:03 -33.96176 151.18943 29 ft 22 kts 348°
2026-05-09 03:03 -33.96026 151.18903 29 ft 22 kts 347°
2026-05-09 03:03 -33.95875 151.18864 29 ft 23 kts 348°
2026-05-09 03:03 -33.95720 151.18824 29 ft 22 kts 348°
2026-05-09 03:04 -33.95569 151.18784 29 ft 22 kts 348°
2026-05-09 03:04 -33.95423 151.18747 29 ft 21 kts 347°
2026-05-09 03:04 -33.95282 151.18703 29 ft 21 kts 337°
2026-05-09 03:04 -33.95170 151.18602 29 ft 20 kts 316°
2026-05-09 03:05 -33.95112 151.18464 29 ft 19 kts 271°
2026-05-09 03:05 -33.95134 151.18326 29 ft 14 kts 258°
2026-05-09 03:05 -33.95152 151.18222 29 ft 10 kts 258°
2026-05-09 03:05 -33.95165 151.18152 28 ft 6 kts 258°
2026-05-09 03:06 -33.95166 151.18142 29 ft 0 kts 258°
2026-05-09 03:07 -33.95168 151.18130 29 ft 8 kts 258°
2026-05-09 03:07 -33.95186 151.18024 29 ft 14 kts 268°
2026-05-09 03:08 -33.95124 151.17950 29 ft 13 kts 346°
2026-05-09 03:08 -33.95030 151.17925 29 ft 15 kts 348°
2026-05-09 03:08 -33.94906 151.17893 29 ft 20 kts 348°
2026-05-09 03:08 -33.94769 151.17857 29 ft 20 kts 348°
2026-05-09 03:09 -33.94634 151.17822 29 ft 19 kts 348°
2026-05-09 03:09 -33.94504 151.17787 29 ft 20 kts 346°
2026-05-09 03:09 -33.94353 151.17741 29 ft 24 kts 345°
2026-05-09 03:09 -33.94194 151.17692 28 ft 23 kts 345°
2026-05-09 03:10 -33.94042 151.17649 27 ft 21 kts 347°
2026-05-09 03:10 -33.93905 151.17612 28 ft 20 kts 348°
2026-05-09 03:10 -33.93774 151.17577 28 ft 19 kts 347°
2026-05-09 03:10 -33.93670 151.17571 28 ft 12 kts 30°
2026-05-09 03:11 -33.93642 151.17661 29 ft 12 kts 95°
2026-05-09 03:11 -33.93655 151.17757 29 ft 11 kts 100°
2026-05-09 03:11 -33.93620 151.17816 29 ft 9 kts 13°
2026-05-09 03:11 -33.93560 151.17830 29 ft 9 kts
2026-05-09 03:12 -33.93519 151.17856 29 ft 5 kts 68°
2026-05-09 03:12 -33.93520 151.17896 29 ft 4 kts 97°
2026-05-09 03:12 -33.93523 151.17917 29 ft 2 kts 99°
2026-05-09 03:12 -33.93523 151.17920 29 ft 0 kts 100°